Flag for Greece Weather past 2 weeks in Kalamata, Greece

Now
52 °F

Partly cloudy.


Feels Like: 52 °F
Forecast: 44 / 62 °F
Wind: No wind

Location: Kalamata Airport


UV Index: 3 (Moderate)

Visibility: N/A


Pressure: 29.86 "Hg

Humidity: 88%

Dew point: 48 °F

Location of KalamataLocation

Historic Weather in Kalamata

°F

Kalamata temperature yesterday

Maximum temperature yesterday: 72 °F (at 12:50 PM)
Minimum temperature yesterday: 43 °F (at 6:50 AM)
Average temperature yesterday: 60 °F

Past Weeks' High & Low Weather Summary

 TemperatureHumidityPressure
High75 °F (Apr 2, 2:20 PM)100% (Apr 6, 8:20 AM)30.09 "Hg (Apr 6, 8:20 AM)
Low41 °F (Apr 11, 6:50 AM)21% (Apr 2, 2:50 PM)29.77 "Hg (Apr 5, 5:20 PM)
Average59 °F72%29.95 "Hg
* Reported Apr 1 6:20 AM — Apr 16 6:50 AM, Kalamata, Weather by CustomWeather, © 2014

Note: Actual official high and low records may vary slightly from our data, if they occured in-between our weather recording intervals... More about our weather records

Advertising

Historic Weather Conditions — Data for Previous 24 hours

 ConditionsComfort  
Time TempWeatherWind HumidityBarometerVisibility
6:50 AM
Apr 16
52 °FPassing clouds.No wind88%29.86 "HgN/A
6:20 AM50 °FPartly cloudy.No wind94%29.86 "HgN/A
5:50 AM50 °FPartly cloudy.No wind94%29.86 "HgN/A
5:20 AM48 °FCool.1 mph94%29.86 "HgN/A
4:50 AM48 °FCool.No wind94%29.86 "HgN/A
4:20 AM48 °FCool.2 mph94%29.86 "HgN/A
3:50 AM48 °FCool.2 mph94%29.89 "HgN/A
1:50 AM48 °FCool.1 mph94%29.92 "HgN/A
1:20 AM50 °FCool.1 mph88%29.92 "HgN/A
12:50 AM50 °FCool.1 mph88%29.92 "HgN/A
12:20 AM50 °FCool.2 mph88%29.92 "HgN/A
11:50 PM
Apr 15
52 °FPassing clouds.No wind82%29.92 "HgN/A
11:20 PM50 °FPassing clouds.No wind82%29.92 "HgN/A
10:50 PM52 °FPassing clouds.No wind82%29.92 "HgN/A
10:20 PM54 °FPassing clouds.No wind82%29.92 "HgN/A
9:50 PM55 °FPassing clouds.6 mph77%29.92 "HgN/A
9:20 PM55 °FPassing clouds.5 mph77%29.92 "HgN/A
8:50 PM57 °FPassing clouds.No wind72%29.92 "HgN/A
8:20 PM59 °FPassing clouds.8 mph68%29.89 "HgN/A
7:50 PM61 °FPassing clouds.9 mph63%29.89 "HgN/A
7:20 PM64 °FPassing clouds.13 mph56%29.89 "HgN/A
6:50 PM64 °FPassing clouds.10 mph52%29.89 "HgN/A
6:20 PM66 °FScattered clouds.9 mph49%29.89 "HgN/A
5:50 PM70 °FScattered clouds.8 mph43%29.89 "HgN/A
5:20 PM70 °FScattered clouds.10 mph46%29.86 "HgN/A
4:50 PM72 °FScattered clouds.9 mph44%29.86 "HgN/A
4:20 PM72 °FScattered clouds.10 mph44%29.89 "HgN/A
3:50 PM70 °FScattered clouds.9 mph53%29.89 "HgN/A
3:20 PM70 °FScattered clouds.10 mph53%29.89 "HgN/A
2:50 PM70 °FScattered clouds.10 mph50%29.92 "HgN/A
2:20 PM70 °FScattered clouds.8 mph50%29.92 "HgN/A
1:50 PM72 °FScattered clouds.7 mph50%29.92 "HgN/A
1:20 PM70 °FScattered clouds.7 mph43%29.92 "HgN/A
12:50 PM72 °FScattered clouds.No wind38%29.92 "HgN/A
12:20 PM70 °FPassing clouds.No wind38%29.95 "HgN/A
11:50 AM70 °FPassing clouds.No wind43%29.95 "HgN/A
11:20 AM68 °FPassing clouds.No wind49%29.95 "HgN/A
10:50 AM66 °FPassing clouds.6 mph56%29.95 "HgN/A
10:20 AM64 °FPassing clouds.5 mph64%29.95 "HgN/A
9:50 AM63 °FPassing clouds.5 mph68%29.95 "HgN/A
9:20 AM59 °FSunny.No wind77%29.95 "Hg10 mi
8:50 AM55 °FSunny.No wind82%29.95 "Hg10 mi
Weather by CustomWeather, © 2014

See weather overview